Torna al catalogo

COSMOS 2211

AttivoMilitarePO
NORAD 22182·PAYLOAD·🇷🇺 Russia

Lanciato Oct 20, 1992 da Plesetsk Cosmodrome

Loading…

Prossimi Passaggi (prossime 24 ore)

TLE

AggiornatoSource: Space-Track

Epoca: Sep 14, 2026, 19:31 UTC

1 22182U 92068A   26257.81359747  .00000000  00000-0 -58246-4 0  9996
2 22182  82.5898 264.2295 0006699 314.0077 219.3032 12.64067646564062

Traccia COSMOS 2211 in tempo reale con AllMySat

Download on the App Store